• In Österreich
  • Länderverzeichnis
  • Für 7 Tage
  • Wassertemperatur
  • Satellitenkarten
  • Wetterkarte
  • News
  • Widgets
  • user-avatar
    Anmelden

    Stündliche Wetter Buenos Aires

    Heute, 18 Juli, Mittwoch

    Zeit Temperatur Niederschläge Wind Luftdruck Luftfeuchtigkeit
    00:00 +13°C° 0,2 mm 3 m/S 761 mmHg 93%
    01:00 +13°C° 0,2 mm 3 m/S 760 mmHg 93%
    02:00 +13°C° 0,2 mm 3 m/S 760 mmHg 94%
    03:00 +13°C° 0,1 mm 3 m/S 760 mmHg 94%
    04:00 +13°C° 0,1 mm 3 m/S 760 mmHg 95%
    05:00 +13°C° 0,1 mm 3 m/S 759 mmHg 95%
    06:00 +13°C° 0 mm 3 m/S 759 mmHg 95%
    07:00 +15°C° 0 mm 2 m/S 759 mmHg 95%
    08:00 +15°C° 0 mm 2 m/S 759 mmHg 96%
    09:00 +15°C° 0,1 mm 2 m/S 759 mmHg 95%
    10:00 +15°C° 0,1 mm 2 m/S 759 mmHg 94%
    11:00 +16°C° 0,1 mm 2 m/S 759 mmHg 93%
    12:00 +16°C° 0,1 mm 2 m/S 759 mmHg 93%
    13:00 +16°C° 0,1 mm 2 m/S 759 mmHg 93%
    14:00 +16°C° 0,1 mm 2 m/S 758 mmHg 93%
    15:00 +16°C° 0,3 mm 2 m/S 758 mmHg 94%
    16:00 +16°C° 0,3 mm 2 m/S 758 mmHg 95%
    17:00 +15°C° 0,3 mm 1 m/S 758 mmHg 96%
    18:00 +15°C° 0,2 mm 2 m/S 758 mmHg 97%
    19:00 +15°C° 0,2 mm 2 m/S 758 mmHg 97%
    20:00 +15°C° 0,2 mm 2 m/S 758 mmHg 97%
    21:00 +15°C° 0,3 mm 2 m/S 758 mmHg 97%
    22:00 +15°C° 0,3 mm 2 m/S 758 mmHg 97%
    23:00 +15°C° 0,3 mm 1 m/S 758 mmHg 97%

    Morgen, 19 Juli, Donnerstag

    Zeit Temperatur Niederschläge Wind Luftdruck Luftfeuchtigkeit
    00:00 +15°C° 0,6 mm 1 m/S 758 mmHg 98%
    01:00 +15°C° 0,6 mm 2 m/S 758 mmHg 98%
    02:00 +15°C° 0,6 mm 2 m/S 758 mmHg 98%
    03:00 +15°C° 1,8 mm 2 m/S 758 mmHg 98%
    04:00 +15°C° 1,8 mm 2 m/S 757 mmHg 97%
    05:00 +15°C° 1,8 mm 2 m/S 757 mmHg 97%
    06:00 +15°C° 2,4 mm 2 m/S 757 mmHg 97%
    07:00 +15°C° 2,4 mm 2 m/S 757 mmHg 96%
    08:00 +14°C° 2,4 mm 3 m/S 757 mmHg 96%
    09:00 +14°C° 0,8 mm 3 m/S 757 mmHg 95%
    10:00 +14°C° 0,8 mm 3 m/S 757 mmHg 94%
    11:00 +14°C° 0,8 mm 3 m/S 757 mmHg 93%
    12:00 +14°C° 0,9 mm 3 m/S 756 mmHg 93%
    13:00 +14°C° 0,9 mm 4 m/S 756 mmHg 92%
    14:00 +14°C° 0,9 mm 4 m/S 755 mmHg 92%
    15:00 +14°C° 1 mm 4 m/S 755 mmHg 92%
    16:00 +14°C° 1 mm 4 m/S 756 mmHg 92%
    17:00 +14°C° 1 mm 4 m/S 756 mmHg 92%
    18:00 +13°C° 0,5 mm 5 m/S 756 mmHg 92%
    19:00 +13°C° 0,5 mm 5 m/S 757 mmHg 92%
    20:00 +13°C° 0,5 mm 5 m/S 757 mmHg 92%
    21:00 +13°C° 0,8 mm 5 m/S 757 mmHg 92%
    22:00 +13°C° 0,8 mm 5 m/S 757 mmHg 92%
    23:00 +11°C° 0,8 mm 6 m/S 757 mmHg 93%

    übermorgen, 20 Juli, Freitag

    Zeit Temperatur Niederschläge Wind Luftdruck Luftfeuchtigkeit
    00:00 +11°C° 0,4 mm 6 m/S 757 mmHg 92%
    01:00 +11°C° 0,4 mm 6 m/S 757 mmHg 92%
    02:00 +11°C° 0,4 mm 6 m/S 756 mmHg 91%
    03:00 +10°C° 0 mm 6 m/S 756 mmHg 90%
    04:00 +10°C° 0 mm 6 m/S 756 mmHg 90%
    05:00 +10°C° 0 mm 6 m/S 755 mmHg 89%
    06:00 +10°C° 0 mm 6 m/S 756 mmHg 87%
    07:00 +10°C° 0 mm 7 m/S 756 mmHg 85%
    08:00 +9°C° 0 mm 7 m/S 757 mmHg 82%
    09:00 +9°C° 0 mm 7 m/S 757 mmHg 80%
    10:00 +9°C° 0 mm 8 m/S 757 mmHg 78%
    11:00 +9°C° 0 mm 8 m/S 757 mmHg 76%
    12:00 +9°C° 0 mm 8 m/S 757 mmHg 75%
    13:00 +8°C° 0 mm 9 m/S 757 mmHg 73%
    14:00 +8°C° 0 mm 9 m/S 756 mmHg 72%
    15:00 +8°C° 0 mm 9 m/S 757 mmHg 71%
    16:00 +8°C° 0 mm 9 m/S 757 mmHg 71%
    17:00 +8°C° 0 mm 9 m/S 757 mmHg 70%
    18:00 +8°C° 0 mm 9 m/S 757 mmHg 70%
    19:00 +7°C° 0 mm 9 m/S 758 mmHg 70%
    20:00 +7°C° 0 mm 10 m/S 758 mmHg 70%
    21:00 +7°C° 0,1 mm 10 m/S 758 mmHg 70%
    22:00 +7°C° 0,1 mm 10 m/S 759 mmHg 69%
    23:00 +7°C° 0,1 mm 10 m/S 759 mmHg 69%

    21 Juli, Samstag

    Zeit Temperatur Niederschläge Wind Luftdruck Luftfeuchtigkeit
    00:00 +6°C° 0 mm 10 m/S 759 mmHg 70%
    01:00 +5°C° 0 mm 9 m/S 759 mmHg 70%
    02:00 +5°C° 0 mm 9 m/S 759 mmHg 71%
    03:00 +3°C° 0 mm 9 m/S 760 mmHg 72%
    04:00 +3°C° 0 mm 9 m/S 760 mmHg 72%
    05:00 +4°C° 0 mm 8 m/S 760 mmHg 73%
    06:00 +4°C° 0 mm 8 m/S 760 mmHg 73%
    07:00 +2°C° 0 mm 8 m/S 761 mmHg 73%
    08:00 +3°C° 0 mm 7 m/S 762 mmHg 73%
    09:00 +4°C° 0 mm 7 m/S 762 mmHg 69%
    10:00 +7°C° 0 mm 6 m/S 762 mmHg 66%
    11:00 +8°C° 0 mm 6 m/S 762 mmHg 62%
    12:00 +9°C° 0 mm 6 m/S 762 mmHg 59%
    13:00 +9°C° 0 mm 5 m/S 761 mmHg 55%
    14:00 +10°C° 0 mm 5 m/S 761 mmHg 52%
    15:00 +9°C° 0 mm 5 m/S 761 mmHg 54%
    16:00 +10°C° 0 mm 4 m/S 761 mmHg 57%
    17:00 +8°C° 0 mm 4 m/S 761 mmHg 59%
    18:00 +9°C° 0 mm 3 m/S 761 mmHg 62%
    19:00 +8°C° 0 mm 3 m/S 761 mmHg 64%
    20:00 +8°C° 0 mm 3 m/S 762 mmHg 67%
    21:00 +7°C° 0 mm 3 m/S 762 mmHg 68%
    22:00 +7°C° 0 mm 3 m/S 762 mmHg 70%
    23:00 +7°C° 0 mm 3 m/S 762 mmHg 71%

    22 Juli, Sonntag

    Zeit Temperatur Niederschläge Wind Luftdruck Luftfeuchtigkeit
    00:00 +7°C° 0 mm 3 m/S 762 mmHg 72%
    01:00 +6°C° 0 mm 4 m/S 762 mmHg 73%
    02:00 +6°C° 0 mm 4 m/S 762 mmHg 74%
    03:00 +5°C° 0 mm 4 m/S 762 mmHg 75%
    04:00 +5°C° 0 mm 4 m/S 762 mmHg 76%
    05:00 +5°C° 0 mm 3 m/S 762 mmHg 77%
    06:00 +5°C° 0 mm 3 m/S 763 mmHg 77%
    07:00 +6°C° 0 mm 4 m/S 763 mmHg 76%
    08:00 +6°C° 0 mm 4 m/S 764 mmHg 76%
    09:00 +8°C° 0 mm 3 m/S 764 mmHg 73%
    10:00 +9°C° 0 mm 3 m/S 764 mmHg 70%
    11:00 +10°C° 0 mm 3 m/S 764 mmHg 66%
    12:00 +11°C° 0 mm 3 m/S 764 mmHg 62%
    13:00 +12°C° 0 mm 3 m/S 763 mmHg 58%
    14:00 +14°C° 0 mm 2 m/S 763 mmHg 54%
    15:00 +13°C° 0 mm 2 m/S 763 mmHg 57%
    16:00 +12°C° 0 mm 1 m/S 763 mmHg 60%
    17:00 +11°C° 0 mm 1 m/S 763 mmHg 64%
    18:00 +11°C° 0 mm 1 m/S 764 mmHg 66%
    19:00 +10°C° 0 mm 1 m/S 764 mmHg 68%
    20:00 +10°C° 0 mm 1 m/S 765 mmHg 70%
    21:00 +10°C° 0 mm 1 m/S 765 mmHg 72%
    22:00 +9°C° 0 mm 1 m/S 765 mmHg 74%
    23:00 +9°C° 0 mm 1 m/S 766 mmHg 75%

    23 Juli, Montag

    Zeit Temperatur Niederschläge Wind Luftdruck Luftfeuchtigkeit
    00:00 +8°C° 0 mm 2 m/S 766 mmHg 77%
    01:00 +8°C° 0 mm 2 m/S 766 mmHg 78%
    02:00 +7°C° 0 mm 3 m/S 766 mmHg 80%
    03:00 +7°C° 0 mm 3 m/S 766 mmHg 79%
    04:00 +6°C° 0 mm 4 m/S 767 mmHg 79%
    05:00 +6°C° 0 mm 4 m/S 767 mmHg 79%
    06:00 +6°C° 0 mm 4 m/S 768 mmHg 73%
    07:00 +6°C° 0 mm 5 m/S 768 mmHg 66%
    08:00 +6°C° 0 mm 5 m/S 769 mmHg 60%
    09:00 +7°C° 0 mm 5 m/S 769 mmHg 54%
    10:00 +8°C° 0 mm 5 m/S 770 mmHg 48%
    11:00 +10°C° 0 mm 5 m/S 770 mmHg 42%
    12:00 +10°C° 0 mm 5 m/S 770 mmHg 41%
    13:00 +12°C° 0 mm 5 m/S 769 mmHg 39%
    14:00 +12°C° 0 mm 4 m/S 769 mmHg 38%
    15:00 +11°C° 0 mm 4 m/S 770 mmHg 44%
    16:00 +10°C° 0 mm 4 m/S 770 mmHg 50%
    17:00 +9°C° 0 mm 3 m/S 770 mmHg 56%
    18:00 +7°C° 0 mm 4 m/S 771 mmHg 61%
    19:00 +7°C° 0 mm 4 m/S 771 mmHg 65%
    20:00 +6°C° 0 mm 4 m/S 772 mmHg 70%
    21:00 +6°C° 0 mm 4 m/S 772 mmHg 73%
    22:00 +6°C° 0 mm 4 m/S 772 mmHg 76%
    23:00 +5°C° 0 mm 4 m/S 772 mmHg 79%
    Mehr zeigen